STARLINK-11210, 60116

Orbit data source: Space-Track

STARLINK-11210, 60116 is a payload satellite owned by SpaceX/Seattle (US) in LEO that was launched on Mon, 24 Jun 2024 UTC via an FALCON 9 launch vehicle from the Air Force Western Test Range (AFWTR). Payload-class satellites include a variety of spacecraft equipped with specific instruments for various scientific and technological missions. These include communications satellites like Starlink; space stations such as the ISS; scientific satellites like the Hubble; Earth observation satellites from companies like Planet Labs, Umbra, and HawkEye 360; GPS; miniature CubeSats for education and research; and military/defense satellites.

Loading next visibility...
Identifier
60116, 2024-118D
Orbit
LEO
Last TLE update
14 hours ago
Origin
Manufacturer
SpaceX/Seattle
Mission
Operational Commercial Communications
Bus & Motor
STARLINK V2M, Unknown motor
Mass
730 kg wet, ~700 kg dry
Launch date (UTC)
2024-06-24 (1 year ago)
Launch vehicle
FALCON 9
Launch site
Air Force Western Test Range (AFWTR)
Object type
Payload
Rocket body
Debris
Shape & HBR
Box + 2 Pan, 29 m
Radar Cross Section
36.964 m², Large (>1 m²)

Expand to show TLE details & history

TLE from 14 hours ago
0 STARLINK-11210
1 60116U 24118D   25181.82846394 -.00000595  00000-0 -55171-7 0  9998
2 60116  53.1593  22.9940 0000745  93.0416 267.0687 15.69703975 58435
Epoch: 2025-06-30T19:52Z
TLE epoch observation values (Epoch: 2025-06-30T19:52:59.284Z)
Latitude
-0.00003°
Longitude
165.61429°
Altitude
360.685 km
Speed
7.694 km/s
True Right ascension
01h 31m 58s
True Declination
0° 00' 00"
Sunlit
Object was in daylight at epoch
Visualization orbit readout
Latitude
14.40218°
Longitude
-28.38185°
Altitude
359.727 km
Speed
7.696 km/s
Apparent Right ascension
11h 28m 37s
Apparent Declination
-12° 35' 36"
Sunlit
Object is in daylight
Visualization observer readout
Local Sidereal Time
21:57:46
Azimuth
317.448° NNW
Elevation
-56.14°
Doppler factor
1
Orbital elements
Apogee altitude
360.507 km
Perigee altitude
359.503 km
Semi-major axis
6,738.142 km
Eccentricity
0.00007
Inclination
53.1593°
RAAN
22.994°
Arg. of periapsis
93.0416°
True anomaly
Unknown
Mean anomaly
267.0687°
Eccentric anomaly
Unknown
Mean motion
3.92404 °/min
Orbital period
91.74 mins
BSTAR
-5.5171e-8
Loading maneuver chart data...
Loading SW <> Apogee altitude chart data...
Loading historical data...
Loading historical data...
Loading historical data...
Loading historical data...
Loading historical data...
Loading historical data...
Loading historical data...

STARLINK-11210 Visibility forecast

Observer location: undefined°, undefined°

Span
Click to sort rows by Start time (UTC) header in descending order
Start Az.
Max El. time (UTC)
Max El. Az.
Max El.
End time (UTC)
End Az.
5 mins2025-07-01 15:55:20.849Z217.853° SW2025-07-01 15:58:20.849Z93.058° ESE38.792°2025-07-01 16:00:20.849Z57.59° ENE
4 mins2025-07-01 22:21:20.849Z341.926° N2025-07-01 22:22:20.849Z19.232° NNE31.432°2025-07-01 22:25:20.849Z106.044° ESE
|